• In Belarus
  • List of Countries
  • For 7 days
  • Water Temperature
  • Satellite Maps
  • Weather Map
  • Weather Widgets
  • user-avatar
    Login

    Hourly Weather Lankaran

    Today, 27 June, Tuesday

    Time Temperature Precipitation Wind Pressure Humidity
    00:00 +14°C° 0 mm 1 mps 636 mmHg 90%
    01:00 +13°C° 0 mm 1 mps 636 mmHg 90%
    02:00 +13°C° 0 mm 1 mps 636 mmHg 90%
    03:00 +13°C° 0 mm 1 mps 635 mmHg 89%
    04:00 +14°C° 0 mm 1 mps 636 mmHg 84%
    05:00 +15°C° 0 mm 1 mps 636 mmHg 78%
    06:00 +18°C° 0 mm 1 mps 636 mmHg 73%
    07:00 +19°C° 0 mm 2 mps 637 mmHg 66%
    08:00 +21°C° 0 mm 2 mps 637 mmHg 59%
    09:00 +23°C° 0 mm 2 mps 637 mmHg 51%
    10:00 +25°C° 0 mm 3 mps 637 mmHg 49%
    11:00 +26°C° 0 mm 3 mps 637 mmHg 47%
    12:00 +27°C° 0 mm 3 mps 637 mmHg 44%
    13:00 +27°C° 0 mm 3 mps 637 mmHg 46%
    14:00 +27°C° 0 mm 3 mps 636 mmHg 48%
    15:00 +27°C° 0 mm 3 mps 636 mmHg 50%
    16:00 +26°C° 0 mm 3 mps 636 mmHg 56%
    17:00 +25°C° 0 mm 3 mps 635 mmHg 62%
    18:00 +24°C° 0 mm 3 mps 635 mmHg 68%
    19:00 +23°C° 0 mm 2 mps 635 mmHg 75%
    20:00 +20°C° 0 mm 2 mps 634 mmHg 81%
    21:00 +18°C° 0 mm 2 mps 634 mmHg 88%
    22:00 +18°C° 0 mm 2 mps 634 mmHg 88%
    23:00 +18°C° 0 mm 1 mps 634 mmHg 88%

    Tomorrow, 28 June, Wednesday

    Time Temperature Precipitation Wind Pressure Humidity
    00:00 +18°C° 0 mm 1 mps 633 mmHg 88%
    01:00 +16°C° 0 mm 1 mps 633 mmHg 88%
    02:00 +16°C° 0 mm 1 mps 633 mmHg 89%
    03:00 +15°C° 0 mm 1 mps 633 mmHg 89%
    04:00 +18°C° 0 mm 1 mps 633 mmHg 85%
    05:00 +19°C° 0 mm 1 mps 634 mmHg 81%
    06:00 +21°C° 0 mm 1 mps 634 mmHg 77%
    07:00 +23°C° 0 mm 1 mps 634 mmHg 70%
    08:00 +24°C° 0 mm 2 mps 635 mmHg 62%
    09:00 +26°C° 0 mm 2 mps 635 mmHg 54%
    10:00 +27°C° 0 mm 2 mps 635 mmHg 52%
    11:00 +28°C° 0 mm 3 mps 635 mmHg 50%
    12:00 +29°C° 0 mm 3 mps 635 mmHg 48%
    13:00 +29°C° 0 mm 3 mps 635 mmHg 48%
    14:00 +29°C° 0 mm 3 mps 634 mmHg 48%
    15:00 +29°C° 0 mm 3 mps 634 mmHg 49%
    16:00 +28°C° 0 mm 3 mps 633 mmHg 53%
    17:00 +26°C° 0 mm 3 mps 633 mmHg 57%
    18:00 +25°C° 0 mm 2 mps 632 mmHg 62%
    19:00 +23°C° 0 mm 2 mps 632 mmHg 69%
    20:00 +21°C° 0 mm 1 mps 632 mmHg 75%
    21:00 +20°C° 0 mm 1 mps 632 mmHg 82%
    22:00 +19°C° 0 mm 1 mps 632 mmHg 82%
    23:00 +18°C° 0 mm 1 mps 632 mmHg 82%

    Day after tomorrow, 29 June, Thursday

    Time Temperature Precipitation Wind Pressure Humidity
    00:00 +18°C° 0 mm 1 mps 631 mmHg 82%
    01:00 +16°C° 0 mm 1 mps 631 mmHg 81%
    02:00 +16°C° 0 mm 1 mps 631 mmHg 81%
    03:00 +15°C° 0 mm 1 mps 631 mmHg 81%
    04:00 +16°C° 0 mm 1 mps 632 mmHg 76%
    05:00 +18°C° 0 mm 2 mps 632 mmHg 71%
    06:00 +19°C° 0 mm 2 mps 632 mmHg 66%
    07:00 +21°C° 0 mm 2 mps 633 mmHg 56%
    08:00 +24°C° 0 mm 2 mps 634 mmHg 46%
    09:00 +26°C° 0 mm 3 mps 634 mmHg 35%
    10:00 +27°C° 0 mm 3 mps 634 mmHg 32%
    11:00 +27°C° 0 mm 3 mps 634 mmHg 29%
    12:00 +28°C° 0 mm 4 mps 634 mmHg 25%
    13:00 +28°C° 0 mm 4 mps 634 mmHg 25%
    14:00 +28°C° 0 mm 4 mps 633 mmHg 25%
    15:00 +28°C° 0 mm 4 mps 633 mmHg 25%
    16:00 +27°C° 0 mm 3 mps 633 mmHg 28%
    17:00 +26°C° 0 mm 3 mps 632 mmHg 32%
    18:00 +24°C° 0 mm 2 mps 632 mmHg 36%
    19:00 +21°C° 0 mm 2 mps 632 mmHg 40%
    20:00 +19°C° 0 mm 2 mps 632 mmHg 45%
    21:00 +18°C° 0 mm 1 mps 632 mmHg 50%
    22:00 +16°C° 0 mm 1 mps 632 mmHg 47%
    23:00 +16°C° 0 mm 1 mps 632 mmHg 44%

    30 June, Friday

    Time Temperature Precipitation Wind Pressure Humidity
    00:00 +15°C° 0 mm 1 mps 631 mmHg 41%
    01:00 +15°C° 0 mm 2 mps 631 mmHg 39%
    02:00 +14°C° 0 mm 2 mps 631 mmHg 37%
    03:00 +14°C° 0 mm 2 mps 631 mmHg 35%
    04:00 +15°C° 0 mm 2 mps 631 mmHg 35%
    05:00 +17°C° 0 mm 2 mps 632 mmHg 34%
    06:00 +18°C° 0 mm 2 mps 633 mmHg 34%
    07:00 +20°C° 0 mm 2 mps 633 mmHg 30%
    08:00 +22°C° 0 mm 3 mps 634 mmHg 26%
    09:00 +25°C° 0 mm 3 mps 634 mmHg 22%
    10:00 +26°C° 0 mm 4 mps 634 mmHg 22%
    11:00 +27°C° 0 mm 4 mps 634 mmHg 21%
    12:00 +28°C° 0 mm 5 mps 634 mmHg 21%
    13:00 +28°C° 0 mm 5 mps 634 mmHg 22%
    14:00 +27°C° 0 mm 5 mps 634 mmHg 24%
    15:00 +27°C° 0 mm 5 mps 634 mmHg 25%
    16:00 +26°C° 0 mm 4 mps 634 mmHg 31%
    17:00 +23°C° 0 mm 4 mps 633 mmHg 36%
    18:00 +22°C° 0 mm 3 mps 633 mmHg 42%
    19:00 +19°C° 0 mm 3 mps 633 mmHg 49%
    20:00 +17°C° 0 mm 3 mps 633 mmHg 56%
    21:00 +15°C° 0 mm 2 mps 633 mmHg 63%
    22:00 +15°C° 0 mm 2 mps 633 mmHg 60%
    23:00 +13°C° 0 mm 3 mps 633 mmHg 56%

    1 July, Saturday

    Time Temperature Precipitation Wind Pressure Humidity
    00:00 +13°C° 0 mm 3 mps 632 mmHg 53%
    01:00 +13°C° 0 mm 3 mps 632 mmHg 52%
    02:00 +12°C° 0 mm 3 mps 632 mmHg 51%
    03:00 +12°C° 0 mm 3 mps 632 mmHg 50%
    04:00 +14°C° 0 mm 3 mps 633 mmHg 48%
    05:00 +16°C° 0 mm 3 mps 633 mmHg 46%
    06:00 +18°C° 0 mm 3 mps 634 mmHg 44%
    07:00 +19°C° 0 mm 3 mps 635 mmHg 40%
    08:00 +21°C° 0 mm 4 mps 635 mmHg 36%
    09:00 +23°C° 0 mm 4 mps 636 mmHg 31%
    10:00 +25°C° 0 mm 5 mps 636 mmHg 30%
    11:00 +27°C° 0 mm 5 mps 636 mmHg 28%
    12:00 +28°C° 0 mm 6 mps 636 mmHg 27%
    13:00 +28°C° 0 mm 6 mps 636 mmHg 28%
    14:00 +28°C° 0 mm 6 mps 636 mmHg 29%
    15:00 +28°C° 0 mm 6 mps 636 mmHg 30%
    16:00 +26°C° 0 mm 5 mps 635 mmHg 35%
    17:00 +25°C° 0 mm 4 mps 635 mmHg 40%
    18:00 +22°C° 0 mm 4 mps 635 mmHg 45%
    19:00 +20°C° 0 mm 3 mps 635 mmHg 53%
    20:00 +18°C° 0 mm 3 mps 634 mmHg 60%
    21:00 +16°C° 0 mm 2 mps 634 mmHg 68%
    22:00 +16°C° 0 mm 2 mps 634 mmHg 62%
    23:00 +16°C° 0 mm 2 mps 634 mmHg 56%

    2 July, Sunday

    Time Temperature Precipitation Wind Pressure Humidity
    00:00 +16°C° 0 mm 2 mps 634 mmHg 51%
    01:00 +16°C° 0 mm 2 mps 634 mmHg 51%
    02:00 +15°C° 0 mm 2 mps 634 mmHg 51%
    03:00 +15°C° 0 mm 2 mps 634 mmHg 51%
    04:00 +16°C° 0 mm 2 mps 634 mmHg 49%
    05:00 +18°C° 0 mm 2 mps 635 mmHg 47%
    06:00 +19°C° 0 mm 2 mps 635 mmHg 46%
    07:00 +21°C° 0 mm 2 mps 636 mmHg 41%
    08:00 +24°C° 0 mm 2 mps 636 mmHg 36%
    09:00 +27°C° 0 mm 3 mps 636 mmHg 31%
    10:00 +28°C° 0 mm 3 mps 636 mmHg 29%
    11:00 +29°C° 0 mm 4 mps 636 mmHg 27%
    12:00 +30°C° 0 mm 4 mps 636 mmHg 24%
    13:00 +30°C° 0 mm 4 mps 636 mmHg 24%
    14:00 +30°C° 0 mm 4 mps 635 mmHg 24%
    15:00 +30°C° 0 mm 4 mps 635 mmHg 24%
    16:00 +29°C° 0 mm 4 mps 635 mmHg 27%
    17:00 +27°C° 0 mm 4 mps 634 mmHg 30%
    18:00 +26°C° 0 mm 3 mps 634 mmHg 33%
    19:00 +24°C° 0 mm 3 mps 633 mmHg 38%
    20:00 +20°C° 0 mm 2 mps 633 mmHg 44%
    21:00 +18°C° 0 mm 2 mps 633 mmHg 49%
    22:00 +18°C° 0 mm 2 mps 632 mmHg 49%
    23:00 +17°C° 0 mm 2 mps 632 mmHg 49%
    Show more